History for Miami, FL

Monday, January 21, 2013 — View Current Conditions

Jump to Data:

Date:
Airport Code:
Recently Viewed Airport Codes: KMIA
Daily Summary
  Actual Average Record
Temperature
Mean Temperature 75°F 68°F  
Max Temperature 81°F 76°F 85°F (1953)
Min Temperature 69°F 60°F 34°F (1985)
Degree Days
Heating Degree Days 0 2  
Month to date heating degree days 4 42  
Since 1 July heating degree days 20 79  
Cooling Degree Days 10 5  
Month to date cooling degree days 201 105  
Year to date cooling degree days 201 105  
Growing Degree Days 25 (Base 50)    
Moisture
Dew Point 66°F    
Average Humidity 79    
Maximum Humidity 90    
Minimum Humidity 67    
Precipitation
Precipitation T in 0.06 in 1.31 in (1956)
Month to date precipitation 0.54 1.06  
Year to date precipitation 0.54 1.06  
Snow
Snow 0.00 in in in ()
Month to date snowfall 0.0  
Since 1 July snowfall 0.0  
Snow Depth 0.00 in    
Sea Level Pressure
Sea Level Pressure 30.04 in    
Wind
Wind Speed 4 mph (West)    
Max Wind Speed 14 mph    
Max Gust Speed 20 mph    
Visibility 10 miles    
Events      
T = Trace of Precipitation, MM = Missing Value Source: NWS Daily Summary

Show full METARS

(help) - Comma Delimited File

Hourly Observations

Time(EST) Temperature Dew Point Humidity Sea Level Pressure Visibility Wind Direction Wind Speed Gust Speed Precipitation Events Conditions
12:53 AM 71.1°F 66.0°F 84% 30.05 in 10.0 miles North 4.6 mph - N/A   Mostly Cloudy
1:12 AM 71.6°F 66.2°F 83% 30.05 in 10.0 miles North 3.5 mph - N/A   Overcast
1:53 AM 71.1°F 66.0°F 84% 30.05 in 10.0 miles Calm Calm - N/A   Overcast
2:47 AM 69.8°F 66.2°F 88% 30.03 in 10.0 miles Calm Calm - N/A   Mostly Cloudy
2:53 AM 70.0°F 66.9°F 90% 30.04 in 10.0 miles Calm Calm - N/A   Mostly Cloudy
3:53 AM 69.8°F 66.2°F 88% 30.03 in 10.0 miles NNE 4.6 mph - N/A   Mostly Cloudy
4:53 AM 70.0°F 66.9°F 90% 30.02 in 10.0 miles NNE 3.5 mph - N/A   Mostly Cloudy
5:53 AM 70.0°F 66.0°F 87% 30.03 in 10.0 miles Calm Calm - N/A   Overcast
6:53 AM 70.0°F 66.9°F 90% 30.04 in 10.0 miles Calm Calm - N/A   Mostly Cloudy
7:53 AM 72.0°F 68.0°F 87% 30.06 in 10.0 miles Calm Calm - N/A   Mostly Cloudy
8:53 AM 75.0°F 66.9°F 76% 30.07 in 10.0 miles East 4.6 mph - N/A   Mostly Cloudy
9:53 AM 75.9°F 66.9°F 74% 30.08 in 10.0 miles East 4.6 mph - N/A   Mostly Cloudy
10:53 AM 79.0°F 66.0°F 64% 30.08 in 10.0 miles Variable 3.5 mph - N/A   Mostly Cloudy
11:53 AM 78.1°F 66.0°F 66% 30.06 in 10.0 miles SSE 6.9 mph - N/A   Mostly Cloudy
12:53 PM 78.1°F 66.0°F 66% 30.03 in 10.0 miles SSE 6.9 mph - N/A   Mostly Cloudy
1:53 PM 78.1°F 66.0°F 66% 30.00 in 10.0 miles SE 10.4 mph - N/A   Mostly Cloudy
2:53 PM 75.0°F 68.0°F 79% 29.99 in 10.0 miles South 10.4 mph 19.6 mph 0.00 in   Mostly Cloudy
3:53 PM 77.0°F 68.0°F 74% 29.99 in 10.0 miles South 6.9 mph - N/A   Mostly Cloudy
4:53 PM 79.0°F 64.9°F 62% 29.99 in 10.0 miles WSW 9.2 mph - N/A   Mostly Cloudy
5:53 PM 75.9°F 64.9°F 69% 30.01 in 10.0 miles WSW 9.2 mph - N/A   Mostly Cloudy
6:53 PM 73.9°F 64.0°F 71% 30.02 in 10.0 miles WSW 10.4 mph - N/A   Mostly Cloudy
7:53 PM 72.0°F 64.0°F 76% 30.03 in 10.0 miles West 8.1 mph - N/A   Mostly Cloudy
8:53 PM 70.0°F 64.9°F 84% 30.05 in 10.0 miles West 6.9 mph - N/A   Mostly Cloudy
9:53 PM 69.1°F 64.0°F 84% 30.05 in 10.0 miles WNW 6.9 mph - N/A   Mostly Cloudy
10:10 PM 69.8°F 64.4°F 83% 30.05 in 10.0 miles WNW 5.8 mph - N/A   Overcast
10:53 PM 69.1°F 64.0°F 84% 30.06 in 10.0 miles WNW 5.8 mph - N/A   Overcast
11:53 PM 66.9°F 64.0°F 90% 30.05 in 10.0 miles WNW 4.6 mph - N/A   Scattered Clouds